THOR ABLESTAR DEB, 145

Orbit data source: Space-Track

THOR ABLESTAR DEB, 145 is space debris in LEO originally from a launch on Thu, 29 Jun 1961 UTC launched from the Air Force Eastern Test Range (AFETR). Debris objects in space refer to the collection of defunct objects orbiting the Earth. Examples of debris include non-operational satellites, rocket bodies, and fragments generated from explosions, collisions, or faulty payload assembly.

Loading next visibility...
Identifier
145, 1961-015AF
Orbit
LEO
Country
Flag of USUS
Related business
Manufacturer
Unknown
Mission
Spacecraft
Bus & Motor
Unknown
Mass
Unknown
Launch date (UTC)
1961-06-29 (64 years ago)
Launch vehicle
Unknown
Launch site
Air Force Eastern Test Range (AFETR)
Object type
Payload
Rocket body
Debris
Shape & HBR
Unknown
Radar Cross Section
Medium (>0.1 m² and <1 m²)

Expand to show TLE details & history
Last TLE update: 8 hours ago

TLE from 8 hours ago
0 THOR ABLESTAR DEB
1 00145U 61015AF  25241.89009139  .00000338  00000-0  26360-3 0  9990
2 00145  66.9278  25.1278 0060474 157.3313 203.0465 14.03028333275842
Epoch: 2025-08-29T21:21Z
TLE epoch observation values (Epoch: 2025-08-29T21:21:43.896Z)
Latitude
-0°
Longitude
86.36264°
Altitude
925.879 km
Speed
7.369 km/s
True Right ascension
01h 40m 30s
True Declination
0° 00' 00"
Sunlit
Object was in full shadow at epoch
Visualization orbit readout
Latitude
Unknown
Longitude
Unknown
Altitude
Unknown
Speed
Unknown
Apparent Right ascension
Unknown
Apparent Declination
Unknown
Sunlit
N/A
Visualization observer readout
Local Sidereal Time
20:43:53
Azimuth
Unknown
Elevation
Unknown
Doppler factor
Unknown
Orbital elements
Apogee altitude
925.6 km
Perigee altitude
837.794 km
Semi-major axis
7,259.834 km
Eccentricity
0.00605
Inclination
66.9278°
RAAN
25.1278°
Arg. of periapsis
157.3313°
True anomaly
202.77709°
Mean anomaly
203.0465°
Eccentric anomaly
202.91161°
Mean motion
3.50876 °/min
Orbital period
102.6 mins
BSTAR
0.0002636
Loading maneuver chart data...
Computing Atmospheric mass density...

Documentation

Showing up to 5 results
|